Tracking 30703 objects as of 14-Jun-2025
HD Live streaming from Space Station
objects crossing your sky now

DELTA 1 DEB

Track DELTA 1 DEB now!
10-day predictions


NORAD ID: 21351
Int'l Code: 1975-052BV
Perigee: 1,098.1 km
Apogee: 1,197.7 km
Inclination: 99.8 °
Period: 108.1 minutes
Semi major axis: 7518 km
RCS: 0.1445 m2 (medium)
Launch date: June 12, 1975
Source: United States (US)
Launch site: AIR FORCE WESTERN TEST RANGE (AFWTR)

Note: This is SATELLITE DEBRIS
Your satellite tracking list
Your tracking list is empty




NASA's NSSDC Master Catalog

Two Line Element Set (TLE):
1 21351U 75052BV  25164.88071917  .00000015  00000-0  11682-3 0  9997
2 21351  99.7983 300.9172 0066247 119.5800  31.8256 13.31603039655189
Source of the keplerian elements: AFSPC